[[{"header":{"parameterUnit":"m.s-1","parameterCategory":1,"la1":30.2991,"la2":30.254,"lo1":-89.0895,"lo2":-89.0444,"dy":0.0017,"dx":0.0017,"nx":28,"ny":28,"refTime":"2024-06-01T21:00:00:Z","depth":0,"parameterNumber":2,"parameterNumberName":"U-component_of_WINDS"},"data":[0,0,0,0,0,0,0,0,0,0,0,0,0,0,0,0,0,0,0,0,0,0,0,0,0,0,0,0,0,0,0,0,0,0,0,0,0,0,0,0,0,0,0,0,0,0,0,0,0,0,0,0,0,0,0,0,0,0,-1.5955,-1.5954,0,-1.5906,-1.5906,-1.5905,-1.5847,-1.5846,-1.5845,-1.5844,-1.5794,-1.5794,-1.5793,0,0,0,0,0,0,0,0,0,0,0,0,0,-1.5997,-1.5997,-1.5955,-1.5954,-1.5953,-1.5907,-1.5906,-1.5905,-1.5847,-1.5846,-1.5845,-1.5844,-1.5795,-1.5794,-1.5793,0,0,0,0,0,0,0,0,0,0,0,0,0,-1.5967,-1.5996,-1.5955,-1.5919,-1.5915,-1.5907,-1.5906,-1.5905,-1.5847,-1.5846,-1.5844,-1.5843,-1.5795,-1.5794,-1.5793,-1.5816,0,0,-1.5791,-1.5791,0,0,0,0,0,0,0,0,-1.5969,-1.5965,-1.5925,-1.5921,-1.5917,-1.5881,-1.5902,-1.5875,-1.5847,-1.5873,-1.5844,-1.5842,-1.5824,-1.5821,-1.5815,-1.5814,-1.5812,-1.5791,-1.5791,-1.579,-1.579,0,0,0,0,0,0,0,-1.5971,-1.5967,-1.5936,-1.5924,-1.5919,-1.5905,-1.5899,-1.5897,-1.5857,-1.5871,-1.5866,-1.5861,-1.5822,-1.5816,-1.5814,-1.5811,-1.5791,-1.5791,-1.579,-1.579,-1.5828,-1.5829,0,0,0,0,0,0,-1.5978,-1.5969,-1.5937,-1.5934,-1.594,-1.5906,-1.5899,-1.5894,-1.5857,-1.585,-1.5863,-1.5859,-1.5818,-1.5814,-1.5812,-1.5836,-1.579,-1.579,-1.5789,-1.5826,-1.5828,-1.583,0,0,0,0,0,0,-1.5979,-1.5976,-1.5939,-1.595,-1.5945,-1.5906,-1.5901,-1.5894,-1.5888,-1.5851,-1.5843,-1.5864,-1.5817,-1.5813,-1.5816,-1.5834,-1.5789,-1.5789,-1.5825,-1.5827,-1.5829,-1.5886,0,0,0,0,0,0,-1.5981,-1.5977,-1.5985,-1.5951,-1.5944,-1.5944,-1.5902,-1.5894,-1.5887,-1.5881,-1.585,-1.5843,-1.5815,-1.5817,-1.5815,-1.5832,-1.5788,-1.5823,-1.5826,-1.5828,-1.5882,-1.589,-1.5896,0,0,0,0,0,-1.5982,-1.6003,-1.5985,-1.5982,-1.5954,-1.5945,-1.5941,-1.5909,-1.5888,-1.5896,-1.5873,-1.5844,-1.5833,-1.5818,-1.5815,-1.5832,-1.5821,-1.5825,-1.5828,-1.5879,-1.5888,-1.5896,0,0,0,0,0,0,-1.6039,-1.5997,-1.5978,-1.5988,-1.5971,-1.5935,-1.5944,-1.5919,-1.5908,-1.5903,-1.5863,-1.5857,-1.5865,-1.5849,-1.5834,-1.5853,-1.5823,-1.5826,-1.5863,-1.5871,-1.5878,-1.5881,-1.5788,0,0,0,0,0,-1.6053,-1.6049,-1.6013,-1.6025,-1.6018,-1.5983,-1.5978,-1.5955,-1.5935,-1.5927,-1.5904,-1.5886,-1.5878,-1.5874,-1.5865,-1.588,-1.5873,-1.5891,-1.5898,-1.5903,-1.5906,-1.5913,-1.5921,-1.584,-1.584,-1.584,0,0,-1.6081,-1.6058,-1.6058,-1.6036,-1.602,-1.6018,-1.5977,-1.5976,-1.5974,-1.5927,-1.5929,-1.5911,-1.5889,-1.5899,-1.5902,-1.5885,-1.5927,-1.5908,-1.5913,-1.5912,-1.5918,-1.5925,-1.5932,-1.5842,-1.5842,-1.5842,0,0,-1.613,-1.6113,-1.6121,-1.6106,-1.6082,-1.6059,-1.6061,-1.603,-1.6017,-1.6018,-1.5983,-1.598,-1.5968,-1.5953,-1.5944,-1.5991,-1.5964,-1.5989,-1.6025,-1.6032,-1.6039,-1.6044,-1.6061,-1.6067,-1.5992,-1.5992,-1.5992,0,-1.6168,-1.6163,-1.6128,-1.613,-1.6121,-1.608,-1.6088,-1.6075,-1.605,-1.6045,-1.6028,-1.6012,-1.5994,-1.6,-1.6011,-1.6005,-1.6007,-1.5992,-1.6041,-1.6046,-1.605,-1.6066,-1.6072,-1.5995,-1.5995,-1.5994,-1.5994,0,-1.6211,-1.6208,-1.6217,-1.6194,-1.6187,-1.6192,-1.6158,-1.6156,-1.6133,-1.6112,-1.6115,-1.6092,-1.6077,-1.6077,-1.6055,-1.608,-1.6071,-1.6048,-1.6017,-1.6062,-1.6075,-1.6081,-1.6,-1.5998,-1.5997,-1.5997,0,0,-1.6293,-1.6252,-1.6256,-1.6245,-1.6216,-1.6214,-1.6217,-1.6203,-1.6202,-1.6186,-1.6188,-1.6179,-1.6158,-1.6148,-1.6124,-1.6131,-1.6169,-1.6107,-1.6106,-1.6119,-1.6196,-1.6213,-1.622,-1.6152,-1.6153,-1.6154,-1.6197,0,-1.6337,-1.634,-1.631,-1.6321,-1.6318,-1.628,-1.6283,-1.6266,-1.6247,-1.6242,-1.622,-1.6215,-1.6187,-1.6181,-1.6186,-1.6164,-1.6184,-1.616,-1.6153,-1.6153,-1.6159,-1.6227,-1.6245,-1.6287,-1.6202,-1.6203,-1.6204,0,-1.6389,-1.6376,-1.6388,-1.6359,-1.6357,-1.636,-1.6345,-1.6341,-1.6321,-1.6307,-1.6297,-1.627,-1.6272,-1.6243,-1.6245,-1.623,-1.6225,-1.6214,-1.6215,-1.6212,-1.6181,-1.6226,-1.63,-1.6306,-1.6212,-1.6211,-1.6211,0,-1.6448,-1.6434,-1.6439,-1.6431,-1.6398,-1.6401,-1.6388,-1.6367,-1.6361,-1.6348,-1.6344,-1.6332,-1.6326,-1.6317,-1.6288,-1.627,-1.6294,-1.6262,-1.6282,-1.6283,-1.6288,-1.6287,-1.6362,-1.6286,-1.6286,-1.6286,-1.6286,0,-1.65,-1.6508,-1.6465,-1.6468,-1.6476,-1.6442,-1.6451,-1.6434,-1.6416,-1.6415,-1.6382,-1.6382,-1.6343,-1.634,-1.6317,-1.6322,-1.632,-1.6308,-1.6302,-1.6311,-1.6312,-1.6307,-1.6303,-1.6288,-1.6287,-1.6287,-1.6287,0,-1.6567,-1.6538,-1.6541,-1.651,-1.6502,-1.651,-1.6483,-1.6485,-1.6464,-1.6464,-1.6462,-1.6429,-1.6423,-1.6394,-1.638,-1.6365,-1.6378,-1.6366,-1.6385,-1.638,-1.6401,-1.64,-1.6474,-1.6482,-1.6402,-1.6403,-1.6404,0,-1.6601,-1.6607,-1.6577,-1.6574,-1.6562,-1.6557,-1.6551,-1.6518,-1.6513,-1.6492,-1.6497,-1.6488,-1.6478,-1.647,-1.6446,-1.6436,-1.6423,-1.645,-1.6421,-1.643,-1.6423,-1.6423,-1.6423,-1.6455,-1.6457,-1.6457,-1.6458,0,-1.6666,-1.6652,-1.6644,-1.6632,-1.6626,-1.6614,-1.6601,-1.6601,-1.6564,-1.6561,-1.6554,-1.6547,-1.6534,-1.6525,-1.6511,-1.6497,-1.6472,-1.6468,-1.6471,-1.648,-1.6491,-1.6485,-1.6401,-1.6466,-1.6465,-1.6464,-1.6464,-1.6464,-1.6718,-1.6721,-1.67,-1.6693,-1.668,-1.6668,-1.6669,-1.6648,-1.6642,-1.6628,-1.661,-1.6606,-1.6587,-1.6565,-1.6554,-1.655,-1.6536,-1.6541,-1.6543,-1.6544,-1.6549,-1.6492,-1.6548,-1.6547,-1.6547,-1.6547,-1.6547,0,-1.6781,-1.6766,-1.6759,-1.6742,-1.6737,-1.6713,-1.6698,-1.6695,-1.6692,-1.6676,-1.6668,-1.6661,-1.6653,-1.6628,-1.6618,-1.662,-1.6608,-1.6618,-1.6617,-1.6615,-1.6563,-1.656,-1.6628,-1.6628,-1.6628,-1.6628,-1.6628,-1.6628,-1.6813,-1.6817,-1.6801,-1.6798,-1.6783,-1.6779,-1.6772,-1.6762,-1.6749,-1.6742,-1.6736,-1.672,-1.6701,-1.6689,-1.6681,-1.6673,-1.6671,-1.6685,-1.6675,-1.6626,-1.6618,-1.6611,-1.6608,-1.6685,-1.6685,-1.6727,-1.6727,-1.6727]},{"header":{"parameterUnit":"m.s-1","parameterCategory":1,"la1":30.2991,"la2":30.254,"lo1":-89.0895,"lo2":-89.0444,"dy":0.0017,"dx":0.0017,"nx":28,"ny":28,"refTime":"2024-06-01T21:00:00:Z","depth":0,"parameterNumber":3,"parameterNumberName":"V-component_of_WINDS"},"data":[0,0,0,0,0,0,0,0,0,0,0,0,0,0,0,0,0,0,0,0,0,0,0,0,0,0,0,0,0,0,0,0,0,0,0,0,0,0,0,0,0,0,0,0,0,0,0,0,0,0,0,0,0,0,0,0,0,0,4.3369,4.3368,0,4.329,4.3289,4.3288,4.3265,4.3266,4.3266,4.3267,4.3179,4.3177,4.3174,0,0,0,0,0,0,0,0,0,0,0,0,0,4.3495,4.3493,4.3369,4.3368,4.3367,4.329,4.3289,4.3288,4.3265,4.3266,4.3266,4.3267,4.318,4.3177,4.3174,0,0,0,0,0,0,0,0,0,0,0,0,0,4.343,4.3492,4.3369,4.3346,4.3344,4.329,4.3289,4.3287,4.3265,4.3266,4.3266,4.3267,4.3181,4.3177,4.3173,4.3135,0,0,4.3161,4.3159,0,0,0,0,0,0,0,0,4.3434,4.3426,4.3351,4.3348,4.3345,4.3288,4.3301,4.3236,4.3265,4.3295,4.3267,4.3267,4.3215,4.3208,4.3191,4.3131,4.3127,4.316,4.3158,4.3156,4.3155,0,0,0,0,0,0,0,4.3438,4.3429,4.3337,4.335,4.3346,4.3339,4.333,4.3289,4.3252,4.3292,4.329,4.3282,4.3213,4.3195,4.3189,4.3125,4.3161,4.3157,4.3154,4.3153,4.303,4.3029,0,0,0,0,0,0,4.3448,4.3433,4.334,4.3335,4.3392,4.3336,4.3326,4.3306,4.3252,4.3245,4.3281,4.3281,4.3202,4.3194,4.3186,4.3138,4.3156,4.3152,4.315,4.303,4.303,4.3029,0,0,0,0,0,0,4.345,4.344,4.3343,4.3383,4.3371,4.3333,4.331,4.3304,4.3286,4.3244,4.3237,4.327,4.3202,4.3192,4.3148,4.3134,4.315,4.3147,4.3031,4.303,4.3029,4.3041,0,0,0,0,0,0,4.3454,4.3441,4.3427,4.3383,4.3369,4.3308,4.3309,4.3302,4.328,4.3279,4.3232,4.3224,4.3202,4.3154,4.3144,4.3129,4.3144,4.3032,4.3031,4.3029,4.3041,4.304,4.3039,0,0,0,0,0,4.3459,4.3431,4.3426,4.3415,4.3351,4.3307,4.3299,4.3275,4.3279,4.3264,4.3237,4.3226,4.3138,4.315,4.3138,4.3122,4.3033,4.3031,4.303,4.3042,4.304,4.3039,0,0,0,0,0,0,4.3471,4.3425,4.3419,4.3377,4.3347,4.3304,4.3284,4.3274,4.324,4.324,4.3211,4.32,4.3159,4.3136,4.315,4.3082,4.3085,4.3081,4.3098,4.3097,4.3095,4.3101,4.314,0,0,0,0,0,4.347,4.3441,4.3401,4.3368,4.3353,4.3322,4.3302,4.3287,4.3253,4.3239,4.3209,4.3175,4.314,4.3117,4.3082,4.3038,4.3027,4.3021,4.302,4.3019,4.3015,4.2991,4.2988,4.3023,4.3023,4.3023,0,0,4.3465,4.3436,4.3419,4.337,4.3344,4.3313,4.331,4.3277,4.3253,4.3233,4.3191,4.3168,4.3128,4.3085,4.3064,4.3064,4.3004,4.3017,4.3016,4.3013,4.2989,4.2986,4.2983,4.3021,4.3022,4.3022,0,0,4.3441,4.3417,4.3387,4.3363,4.3325,4.3305,4.3298,4.3256,4.3241,4.3199,4.3183,4.3154,4.3093,4.3066,4.3044,4.3012,4.3001,4.3001,4.2994,4.2971,4.2968,4.2966,4.2954,4.2951,4.2998,4.2998,4.2998,0,4.344,4.3394,4.3372,4.3341,4.3319,4.3303,4.3272,4.3248,4.32,4.3185,4.3187,4.3112,4.3084,4.3034,4.3027,4.3009,4.3,4.3006,4.2971,4.2968,4.2965,4.2954,4.295,4.2998,4.2998,4.2998,4.2998,0,4.3394,4.3363,4.3343,4.3301,4.3277,4.3245,4.3218,4.3196,4.3183,4.3162,4.3119,4.3085,4.3044,4.3031,4.3017,4.2979,4.2981,4.2977,4.298,4.2963,4.2952,4.2947,4.2999,4.2999,4.2999,4.2999,0,0,4.3374,4.3322,4.3315,4.3296,4.3255,4.3229,4.3197,4.3159,4.3141,4.3108,4.308,4.3031,4.3028,4.3003,4.2986,4.2965,4.2943,4.2964,4.2963,4.2961,4.2899,4.2902,4.2898,4.2935,4.2934,4.2934,4.2902,0,4.3345,4.329,4.327,4.3223,4.3194,4.3178,4.315,4.3121,4.3101,4.3071,4.3048,4.3014,4.3012,4.2997,4.2976,4.295,4.293,4.2952,4.2907,4.2906,4.2918,4.2892,4.2894,4.2867,4.2898,4.2897,4.2897,0,4.3304,4.3274,4.3225,4.3189,4.3176,4.3151,4.3115,4.3088,4.3054,4.3041,4.3014,4.2999,4.2964,4.2969,4.292,4.2935,4.2916,4.2901,4.2899,4.2893,4.29,4.2885,4.2857,4.2853,4.289,4.289,4.2891,0,4.3295,4.3242,4.3207,4.3191,4.3147,4.313,4.3111,4.3078,4.3057,4.3025,4.301,4.2974,4.2953,4.2925,4.29,4.2906,4.2853,4.2856,4.2839,4.284,4.2828,4.2829,4.2796,4.2816,4.2816,4.2817,4.2817,0,4.3264,4.3235,4.3202,4.318,4.3147,4.3124,4.3091,4.3071,4.3042,4.3015,4.2998,4.2972,4.2941,4.2911,4.2891,4.2853,4.2844,4.2831,4.2826,4.2833,4.2834,4.2819,4.282,4.2815,4.2816,4.2816,4.2816,0,4.3248,4.3225,4.3185,4.3148,4.3138,4.3115,4.3083,4.306,4.304,4.3006,4.2996,4.2963,4.2928,4.29,4.2853,4.2839,4.2799,4.2794,4.2811,4.2809,4.2794,4.2796,4.275,4.2742,4.2768,4.2768,4.2767,0,4.323,4.3207,4.3169,4.3151,4.3132,4.3103,4.3082,4.3058,4.3037,4.2998,4.298,4.2943,4.2913,4.2856,4.2827,4.279,4.2784,4.277,4.2778,4.2786,4.2784,4.2785,4.2783,4.2769,4.2769,4.2769,4.2769,0,4.32,4.319,4.3162,4.313,4.3106,4.3079,4.3052,4.3037,4.3008,4.2985,4.295,4.2926,4.2879,4.2843,4.2804,4.2782,4.277,4.2767,4.2761,4.2767,4.2778,4.2772,4.2808,4.2768,4.2768,4.2768,4.2768,4.2768,4.3182,4.3162,4.3132,4.3101,4.3079,4.3054,4.3032,4.301,4.298,4.2942,4.2929,4.2893,4.286,4.2807,4.2785,4.2755,4.2754,4.2746,4.2744,4.2742,4.2743,4.2784,4.2748,4.2747,4.2747,4.2747,4.2747,0,4.3152,4.3132,4.3104,4.3068,4.3044,4.3038,4.3007,4.2986,4.2955,4.2927,4.2898,4.2857,4.2822,4.2791,4.2755,4.2737,4.273,4.2728,4.2729,4.2724,4.2745,4.2754,4.2734,4.2734,4.2734,4.2734,4.2734,4.2734,4.3133,4.3099,4.3086,4.304,4.3021,4.2987,4.297,4.2946,4.2924,4.288,4.2852,4.2833,4.2803,4.2765,4.2732,4.2724,4.2711,4.271,4.27,4.272,4.2722,4.2724,4.2732,4.2707,4.2707,4.2681,4.2681,4.2681]}]]